Regional Weather Roundup
Issued by NWS Mt. Holly, NJ

Home | Current Version | Previous Version | Text Only | Print | Product List | Glossary On
Versions: 1 2 3 4 5 6 7 8 9 10 11 12 13 14 15 16 17 18 19 20 21 22 23 24 25 26 27 28 29 30 31 32 33 34 35 36 37 38 39 40 41 42 43 44 45 46 47 48 49 50
000
ASUS41 KPHI 030612
RWRPHI

REGIONAL WEATHER ROUNDUP
NATIONAL WEATHER SERVICE MOUNT HOLLY NJ
200 AM EDT THU SEP 03 2015

NOTE:  "FAIR" INDICATES FEW OR NO CLOUDS BELOW 12,000 FEET WITH NO
SIGNIFICANT WEATHER AND/OR OBSTRUCTIONS TO VISIBILITY.

 * = STATION DOES NOT REPORT PRECIPITATION (E.G. RAIN, SNOW, ETC.)
        OR FOG.

NJZ015>026-030700-
SOUTHERN NEW JERSEY

CITY           SKY/WX    TMP DP  RH WIND       PRES   REMARKS
POMONA         FAIR      73  69  87 W5        29.88F
6HR MIN TEMP:  72; 6HR MAX TEMP:  78;

WILDWOOD*      FAIR      72  68  88 W6        29.90F
MILLVILLE      FAIR      68  66  93 W5        29.89F FOG
WRIGHTSTOWN    FAIR      70  70 100 W3        29.86F
MOUNT HOLLY      N/A     70  67  90 CALM      29.88F
TRENTON        FAIR      72  66  81 NW6       29.88F
6HR MIN TEMP:  71; 6HR MAX TEMP:  85;


$$
NJZ001>014-030700-
NORTHERN NEW JERSEY

CITY           SKY/WX    TMP DP  RH WIND       PRES   REMARKS
SUSSEX         FAIR      64  62  93 CALM      29.91F FOG
ANDOVER*         N/A     65  64  97 CALM      29.92F
MORRISTOWN     FOG       63  59  88 CALM      29.89F VSB 1/2
NEWARK         FAIR      77  69  76 W5        29.87F
TETERBORO      FAIR      75  68  78 CALM      29.87S
CALDWELL       FAIR      71  66  84 CALM      29.89S
SOMERVILLE     FAIR      67  64  90 CALM      29.88S FOG
ALLAIRE*       FAIR      72  66  83 W6        29.88F
TOMS RIVER*    FAIR      70  68  94 CALM      29.88F

$$
PAZ043-044-047-054-055-060>062-066>071-030700-
EASTERN PENNSYLVANIA

CITY           SKY/WX    TMP DP  RH WIND       PRES   REMARKS
PHILADELPHIA   FAIR      77  70  79 CALM      29.89F
6HR MIN TEMP:  75; 6HR MAX TEMP:  89;

NORTH PHILA    FAIR      76  62  62 NW5       29.90F
BLUE BELL      FAIR      66  64  94 CALM      29.90S
DOYLESTOWN     FAIR      69  65  86 CALM      29.90F
QUAKERTOWN*    FAIR      64  64 100 CALM      29.93F
POTTSTOWN      FAIR      69  65  86 CALM      29.92F
LANCASTER      FAIR      71  68  90 W6        29.92F FOG
COATESVILLE    FAIR      73  66  78 W6        29.93F
READING        FAIR      70  66  87 CALM      29.91F
6HR MIN TEMP:  70; 6HR MAX TEMP:  81;

ALLENTOWN      FAIR      70  65  84 CALM      29.92S
6HR MIN TEMP:  68; 6HR MAX TEMP:  81;

MOUNT POCONO   FAIR      63  60  90 NW5       29.99S
6HR MIN TEMP:  62; 6HR MAX TEMP:  72;

HAZLETON       MOCLDY    63  63 100 CALM      30.01F FOG
WILKES BARRE   FAIR      68  62  81 E6        29.95S

$$
DEZALL-MDZ008-012-015-019-020-030700-
DELAWARE AND EASTERN MARYLAND

CITY           SKY/WX    TMP DP  RH WIND       PRES   REMARKS
WILMINGTON     FAIR      72  65  78 W6        29.90F
6HR MIN TEMP:  70; 6HR MAX TEMP:  83;

DOVER          FAIR      73  71  91 SW2       29.88F
GEORGETOWN     FAIR      73  70  90 SW3       29.91F FOG
6HR MIN TEMP:  73; 6HR MAX TEMP:  78;

PATUXENT       FAIR      74  66  76 W9        29.92F
OCEAN CITY     FAIR      76  72  87 W6        29.90F
WALLOPS ISLAND FAIR      75  73  93 W5        29.91F
CAMBRIDGE      FAIR      72  68  88 CALM      29.90F
SALISBURY      FAIR      73  72  96 SW3       29.90F FOG

$$
PAZ001-021-NYZ056-072-MDZ011-DCZ001-030700-
OTHER NEARBY LOCATIONS

CITY           SKY/WX    TMP DP  RH WIND       PRES   REMARKS
HARRISBURG     FAIR      74  66  76 NW9       29.91F
STATE COLLEGE  FAIR      67  65  94 SW3       29.98F
WILLIAMSPORT   FAIR      70  67  90 N3        29.93S
BINGHAMTON     FAIR      69  65  86 W3        29.97F
NEW YORK CITY  FAIR      78  70  76 CALM      29.90S
BALTIMORE      FAIR      72  68  87 CALM      29.92S
WASHINGTON DC  FAIR      76  68  76 W5        29.93F

$$


USA.gov is the U.S. government's official web portal to all federal, state and local government web resources and services.